Location: Kuppenheim
(48.8299°N, 8.2568°E)
Time: 08:38:41
(UTC+00:00)

Envisat - Pass Details

Date: 07 December 2022
Orbit: 763 x 765 km, 98.2° (Epoch: 04 February)

Event Time Altitude Azimuth Distance (km) Brightness Sun altitude
Rises 16:29:56 0° 226° (SW) 3,223 7.8 -9.3°
Reaches altitude 10° 16:35:06 10° 272° (W) 2,307 6.6 -10.1°
Maximum altitude 16:35:29 10° 276° (W) 2,302 6.5 -10.2°
Drops below altitude 10° 16:35:51 10° 281° (W) 2,308 6.4 -10.2°
Sets 16:41:04 0° 326° (NW) 3,244 6.4 -11.0°
